This is the latest recevied weather packets stored in our database for station/object KJ4EWA. If no packets are shown the sender has not sent any weather packets the latest 10 day(s).
| Time | Temp. | Humidity | Pressure | Rain* | Wind** | Luminosity | Snow |
|---|---|---|---|---|---|---|---|
| 1777927273 | 25.56° C | 46% | 1018.5 hPa | 0 mm | - | 542 W/m² | - |
| 1777926971 | 25.56° C | 47% | 1018.2 hPa | 0 mm | - | 552 W/m² | - |
| 1777926668 | 25.56° C | 46% | 1018.3 hPa | 0 mm | - | 524 W/m² | - |
| 1777926363 | 25.56° C | 46% | 1018.4 hPa | 0 mm | - | 574 W/m² | - |
| 1777926060 | 26.11° C | 44% | 1018.7 hPa | 0 mm | - | 603 W/m² | - |
| 1777925757 | 25.56° C | 46% | 1018.6 hPa | 0 mm | - | 598 W/m² | - |
| 1777925455 | 26.11° C | 45% | 1018.5 hPa | 0 mm | - | 563 W/m² | - |
| 1777925151 | 25.56° C | 45% | 1018.6 hPa | 0 mm | - | 615 W/m² | - |
| 1777924848 | 26.11° C | 45% | 1018.8 hPa | 0 mm | - | 629 W/m² | - |
| 1777924544 | 25.56° C | 45% | 1018.5 hPa | 0 mm | - | 559 W/m² | - |
| 1777924241 | 26.67° C | 43% | 1018.9 hPa | 0 mm | - | 269 W/m² | - |
| 1777923937 | 26.11° C | 43% | 1018.6 hPa | 0 mm | - | 261 W/m² | - |
| 1777923633 | 27.78° C | 42% | 1018.9 hPa | 0 mm | - | 325 W/m² | - |
| 1777923330 | 27.22° C | 44% | 1018.7 hPa | 0 mm | - | 663 W/m² | - |
| 1777923028 | 26.11° C | 44% | 1018.8 hPa | 0 mm | - | 719 W/m² | - |
| 1777922726 | 26.67° C | 44% | 1018.9 hPa | 0 mm | - | 679 W/m² | - |
| 1777922424 | 27.22° C | 43% | 1019 hPa | 0 mm | - | 670 W/m² | - |
| 1777922122 | 25.56° C | 44% | 1019 hPa | 0 mm | - | 652 W/m² | - |
| 1777921818 | 26.11° C | 45% | 1019.2 hPa | 0 mm | - | 450 W/m² | - |
| 1777921514 | 25.56° C | 47% | 1019.5 hPa | 0 mm | - | 668 W/m² | - |
| 1777921210 | 25° C | 45% | 1019.4 hPa | 0 mm | - | 626 W/m² | - |
| 1777920907 | 25° C | 46% | 1019.4 hPa | 0 mm | - | 725 W/m² | - |
| 1777920604 | 25° C | 46% | 1019.7 hPa | 0 mm | - | 716 W/m² | - |
| 1777920299 | 27.22° C | 45% | 1019.6 hPa | 0 mm | - | 727 W/m² | - |
| 1777919995 | 27.22° C | 45% | 1019.8 hPa | 0 mm | - | 738 W/m² | - |
* Rain latest hour (hover to see other rain measurements)
** Current wind speed in m/s (hover to see current wind gust speed)